#timestamp,LO_Frequency,Hit,StdDev 
1667037615.1,286047001.7,N
1667037616.0,286047001.7,N
1667037635.8,286047003.6,N
1667037655.7,286047003.9,N
1667037675.5,286047003.6,N
1667037695.3,286047001.7,N
1667037715.2,286047003.8,N
1667037735.0,286047001.6,N
1667037735.9,286047001.6,N
1667037755.8,286047000.3,N
1667037775.6,286046999.9,N
1667037795.4,286047002.5,N
1667037815.3,286047004.1,N
1667037835.1,286047002.3,N
1667037855.8,286046999.9,N
1667037875.7,286047001.1,N
1667037895.5,286047002.8,N
1667037915.4,286047002.8,N
1667037935.2,286047002.7,N
1667037955.0,286046999.9,N
1667037955.9,286046999.9,N
1667037975.8,286047000.7,N
1667037995.6,286047000.9,N
1667038015.4,286047001.1,N
1667038035.3,286047000.4,N
1667038055.1,286046999.7,N
1667038075.9,286047004.2,Y
1667038095.7,286047001.0,P
1667038115.5,286047002.3,P
1667038135.4,286047002.7,P
1667038155.2,286047002.8,Y
1667038175.1,286046996.6,P
1667038176.0,286046996.6,N
1667038195.8,286046997.4,N
1667038215.6,286046995.0,N
1667038235.5,286046997.7,N
1667038255.3,286046995.3,N
1667038275.1,286046995.7,N
1667038295.9,286046995.5,N
1667038315.7,286046996.7,N
1667038335.6,286046997.5,N
1667038355.4,286046995.2,N
1667038375.2,286046997.6,N
1667038395.1,286046997.4,N
1667038396.0,286046997.4,N
1667038415.8,286046997.8,N
1667038435.6,286046997.1,N
1667038455.5,286046999.5,N
1667038475.3,286046999.0,N
1667038495.2,286047001.2,N
1667038515.9,286047000.5,N
1667038535.7,286047000.6,N
1667038555.6,286047001.2,N
1667038575.4,286047001.2,N
1667038595.2,286047000.8,N
1667038615.1,286047000.5,N
1667038616.0,286047000.5,N
1667038635.8,286047000.0,N
1667038685.7,286046999.4,E
1667038695.6,286046998.2,N
1667038715.4,286046998.5,P
1667038735.3,286046998.3,P
1667038755.1,286046998.9,Y
1667038775.9,286046999.7,P
1667038795.7,286047000.2,N
1667038815.5,286046999.9,N
1667038835.4,286047002.6,Y
1667038855.2,286047002.3,P
1667038905.1,286047002.5,E
1667038915.0,286047002.6,N
1667038915.9,286047002.6,P
1667038935.8,286047000.2,P
1667038955.6,286047000.8,N
1667038975.4,286046998.7,N
1667038995.3,286046997.0,N
1667039015.1,286046995.6,N
1667039035.9,286046995.8,N
1667039055.7,286046998.0,N
1667039075.5,286046997.9,N
1667039095.4,286046996.9,N
1667039115.2,286046999.4,N
1667039135.1,286046998.9,N
1667039136.0,286046998.9,N
1667039155.8,286046998.9,N
1667039175.6,286046999.5,N
1667039195.5,286046998.3,N
1667039215.3,286046997.0,N
1667039235.2,286046998.6,N
1667039255.0,286046997.1,N
1667039255.9,286046997.1,N
1667039275.8,286046999.4,N
1667039295.6,286046998.7,N
1667039315.4,286047001.1,N
1667039335.3,286046998.5,N
1667039355.1,286046998.3,N
1667039375.8,286047000.9,N
1667039395.7,286047000.2,N
1667039415.5,286046998.1,N
1667039435.4,286047000.8,N
1667039455.2,286047000.9,N
1667039475.0,286047000.6,N
1667039475.9,286047000.6,N
1667039495.8,286046998.4,N
1667039515.6,286046996.6,N
1667039535.5,286046996.9,N
1667039555.3,286046998.8,N
1667039575.1,286046996.9,N
1667039595.9,286046999.5,N
1667039615.7,286046999.3,N
1667039635.5,286046999.0,N
1667039655.4,286046999.4,N
1667039675.2,286046997.0,N
1667039695.1,286046996.5,N
1667039696.0,286046996.5,N
1667039715.8,286046999.4,N
1667039735.6,286046997.6,N
1667039755.5,286046997.2,N
1667039775.3,286046997.5,N
1667039795.1,286046997.1,N
1667039815.9,286046998.4,N
1667039835.7,286046998.2,N
1667039855.6,286047000.6,N
1667039875.4,286046998.7,N
1667039895.2,286046999.3,N
1667039915.1,286046999.4,N
1667039916.0,286046999.4,N
1667039935.8,286046999.4,N
1667039955.6,286046999.5,N
1667039975.5,286046998.7,N
1667039995.3,286046998.0,N
1667040015.2,286046997.2,N
1667040035.9,286046999.3,N
1667040055.7,286046999.0,N
1667040075.6,286046998.1,N
1667040095.4,286047000.5,N
1667040115.2,286047000.1,N
1667040135.1,286047000.4,N
1667040136.0,286047000.4,N
1667040155.8,286047000.0,N
1667040175.7,286047000.5,N
1667040195.5,286047000.6,N
1667040215.3,286046996.5,N
1667040235.2,286046996.1,N
1667040255.0,286046997.7,N
1667040255.9,286046997.7,N
1667040275.7,286046997.5,N
1667040295.6,286046997.8,N
1667040315.4,286046996.8,N
1667040335.3,286046998.7,N
1667040355.1,286046998.1,N
1667040356.0,286046998.1,N
1667040375.8,286047000.4,N
1667040395.7,286047000.4,N
1667040415.5,286047000.6,N
1667040435.4,286047002.4,N
1667040455.2,286047001.9,N
1667040475.0,286047002.1,N
1667040475.9,286047002.1,N
1667040495.8,286047002.7,N
1667040515.6,286047000.2,N
1667040535.4,286047002.2,N
1667040555.3,286047000.9,N
1667040575.1,286047001.2,N
1667040595.9,286046998.2,N
1667040615.7,286047000.8,N
1667040635.5,286046998.6,N
1667040655.4,286046998.4,N
1667040675.2,286046998.4,N
1667040695.0,286046998.8,N
1667040695.9,286047011.9,Y
1667040715.8,286047001.0,P
1667040735.6,286046998.3,N
1667040755.5,286046996.6,P
1667040775.3,286046997.1,N
1667040795.1,286046997.3,N
1667040815.9,286046997.3,N
1667040835.7,286046996.7,N
1667040855.5,286046997.5,N
1667040875.4,286046997.9,N
1667040895.2,286046995.4,Y
1667040915.1,286046998.6,P
1667040916.0,286046998.6,P
1667040935.8,286046999.0,P
1667040955.6,286046999.3,N
1667040975.5,286046999.5,N
1667040995.3,286046999.5,N
1667041015.1,286046999.6,N
1667041035.9,286046998.9,N
1667041055.7,286046998.8,N
1667041075.6,286046996.5,Y
1667041095.4,286046999.0,P
1667041115.2,286046999.6,P
1667041135.1,286046999.2,N
1667041136.0,286046999.2,Y
1667041155.8,286046999.2,P
1667041175.7,286046996.6,P
1667041195.5,286046999.1,N
